Weather observations for the past three days for
Mojave
Imperial (Metric)
Date Time (pdt) Wind (mph) Vis. (mi.) Weather Sky Cond. Temperature (ºF) Relative Humidity Wind Chill (°F) Heat Index (°F) Pressure Precipitation (in)
Air Dwpt 6 hour altimeter (in) sea level (mb) 1 hr 3 hr 6 hr
Max. Min.
05 09:55 NW 24 G 30 10.00 A Few Clouds and Breezy FEW080 57.7 40.6 53% 29.9 0.0
05 09:35 NW 25 G 29 10.00 A Few Clouds and Breezy FEW080 57 40.8 55% 29.89 0.0
05 09:15 NW 21 G 32 10.00 Fair and Breezy CLR 56.7 40.3 54% 29.89 0.0
05 08:55 NW 20 G 31 10.00 Fair CLR 56.1 40.3 56% 29.88 0.0
05 08:35 NW 24 G 33 10.00 Fair and Breezy CLR 55.4 40.1 57% 29.88 0.0
05 08:15 NW 24 G 35 10.00 Fair and Breezy CLR 55.4 39.2 55% 29.87 0.0
05 07:55 NW 20 10.00 Fair CLR 54.5 38.3 55% 29.87 0.0
05 07:35 NW 16 G 28 10.00 Fair CLR 53.1 38.8 59% 29.87 0.0
05 07:15 NW 20 G 31 10.00 Fair CLR 52.3 38.8 60% 29.87 0.0
05 06:55 NW 17 G 29 10.00 Fair CLR 51.3 39.6 64% 29.87 0.0
05 06:35 NW 15 G 22 10.00 Fair CLR 50.5 39.9 67% 29.86 0.0
05 05:55 SW 10 10.00 A Few Clouds FEW070 48.7 40.3 73% 45 29.86 0.0
05 05:35 SW 13 10.00 Fair CLR 48.7 40.6 74% 44 29.86 0.0
05 05:15 SW 12 G 21 10.00 Fair CLR 49.5 40.1 70% 45 29.86 0.0
05 04:55 SW 13 G 21 10.00 Fair CLR 49.5 40.1 52.5 49.3 70% 45 29.86 0.0
05 04:35 SW 13 G 18 10.00 Fair CLR 49.6 39.6 68% 45 29.86 0.0
05 04:15 W 14 10.00 Fair CLR 49.6 39.7 69% 45 29.86 0.0
05 03:55 W 13 10.00 Fair CLR 50 39.2 67% 46 29.86 0.0
05 03:35 SW 13 G 21 10.00 A Few Clouds FEW210 49.8 39.4 67% 45 29.86 0.0
05 03:15 W 14 10.00 A Few Clouds FEW210 50.2 39.6 67% 29.86 0.0
05 02:55 W 13 10.00 Fair CLR 50.5 39.6 66% 29.87 0.0
05 02:35 W 13 10.00 Fair CLR 50.7 39.4 65% 29.87 0.0
05 02:15 W 14 G 25 10.00 A Few Clouds FEW220 51.3 39.6 64% 29.88 0.0
05 01:55 W 18 G 24 10.00 Fair CLR 52 39.4 62% 29.89 0.0
05 01:35 W 23 G 29 10.00 Fair and Breezy CLR 52.3 39.2 61% 29.89 0.0
05 01:15 W 23 G 28 10.00 A Few Clouds and Breezy FEW070 52.3 39 61% 29.9 0.0
05 00:55 W 17 G 25 10.00 Fair CLR 52.2 39.2 61% 29.9 0.0
05 00:35 W 16 10.00 Fair CLR 52.3 38.8 60% 29.9 0.0
05 00:15 SW 7 10.00 Fair CLR 49.5 42.3 76% 47 29.9 0.0
04 23:55 SW 10 10.00 Fair CLR 49.6 42.6 77% 46 29.9 0.0
04 23:35 SW 12 10.00 Fair CLR 50 41.7 73% 46 29.9 0.0
04 23:15 SW 10 10.00 Fair CLR 50 41.9 74% 46 29.91 0.0
04 22:55 SW 10 G 17 10.00 Fair CLR 50.5 42.1 62.6 50.5 73% 29.91 0.0
04 22:35 SW 9 G 20 10.00 Fair CLR 50.7 42.1 72% 29.92 0.0
04 22:15 W 14 10.00 Fair CLR 53.4 38.7 58% 29.92 0.0
04 21:55 SW 7 10.00 Fair CLR 51.6 41.7 69% 29.92 0.0
04 21:35 SW 12 10.00 A Few Clouds FEW065 51.8 42.4 71% 29.92 0.0
04 21:15 SW 13 10.00 A Few Clouds FEW065 52.7 42.6 69% 29.92 0.0
04 20:55 W 12 10.00 Partly Cloudy SCT065 54.5 38.7 55% 29.91 0.0
04 20:35 W 14 G 20 10.00 Mostly Cloudy BKN065 55 38.3 53% 29.9 0.0
04 20:15 SW 14 G 20 10.00 A Few Clouds FEW070 55.2 38.8 54% 29.89 0.0
04 19:55 NW 15 G 22 10.00 A Few Clouds FEW070 55.8 38.5 52% 29.88 0.0
04 19:35 W 14 G 21 10.00 Mostly Cloudy BKN070 56.1 38.7 52% 29.88 0.0
04 19:15 W 17 G 28 10.00 Mostly Cloudy BKN070 57 38.1 49% 29.88 0.0
04 18:55 NW 14 G 24 10.00 Partly Cloudy SCT075 59.4 36.9 43% 29.88 0.0
04 18:35 W 15 G 23 10.00 Fair CLR 59.7 37.8 44% 29.88 0.0
04 18:15 W 17 G 25 10.00 Fair CLR 60.4 36.3 41% 29.88 0.0
04 17:55 W 21 G 31 10.00 A Few Clouds and Breezy FEW070 61 36.5 40% 29.88 0.0
04 17:35 W 18 G 24 10.00 Mostly Cloudy BKN070 61.9 36.9 40% 29.88 0.0
04 17:15 NW 22 G 28 10.00 A Few Clouds and Breezy FEW070 62.1 36.9 39% 29.88 0.0
04 16:55 NW 23 G 31 10.00 Mostly Cloudy and Breezy BKN065 62.6 36 64.6 58.3 37% 29.88 0.0
04 16:35 W 21 G 30 10.00 Overcast and Breezy OVC065 62.6 36.3 38% 29.88 0.0
04 16:15 W 21 G 36 10.00 Overcast and Breezy OVC060 62.6 36.1 37% 29.88 0.0
04 15:55 W 18 G 26 10.00 Overcast OVC060 61.7 35.2 37% 29.89 0.0
04 15:35 W 21 G 29 10.00 Overcast and Breezy OVC055 61.2 35.8 39% 29.89 0.0
04 15:15 W 18 G 29 10.00 Overcast OVC055 61.9 36.5 39% 29.9 0.0
04 14:55 W 22 G 29 10.00 Mostly Cloudy and Breezy BKN050 62.6 37.4 39% 29.9 0.0
04 14:35 NW 22 G 28 10.00 Partly Cloudy and Breezy SCT050 64 37.4 37% 29.91 0.0
04 14:15 W 22 G 29 10.00 Mostly Cloudy and Breezy BKN050 63 36.7 38% 29.9 0.0
04 13:55 W 20 G 32 10.00 A Few Clouds FEW300 62.6 36.9 39% 29.91 0.0
04 13:35 W 21 G 30 10.00 Partly Cloudy and Breezy SCT300 SCT320 62.1 37.8 41% 29.9 0.0
04 13:15 W 25 G 32 10.00 A Few Clouds and Breezy FEW290 60.8 38.7 44% 29.9 0.0
04 12:55 W 28 G 33 10.00 A Few Clouds and Windy FEW330 60.8 38.7 44% 29.91 0.0
04 12:35 W 23 G 29 10.00 A Few Clouds and Breezy FEW310 61.3 39 44% 29.91 0.0
04 12:15 W 24 G 33 10.00 A Few Clouds and Breezy FEW290 60.1 38.8 46% 29.91 0.0
04 11:55 W 25 G 31 10.00 A Few Clouds and Breezy FEW290 59.9 38.5 45% 29.92 0.0
04 11:35 W 21 G 28 10.00 Fair and Breezy CLR 59.5 38.3 45% 29.91 0.0
04 11:15 W 22 G 29 10.00 Fair and Breezy CLR 59.2 38.5 46% 29.92 0.0
04 10:55 W 22 G 33 10.00 Fair and Breezy CLR 58.1 38.7 58.3 49.3 49% 29.92 0.0
04 10:35 W 23 G 30 10.00 Fair and Breezy CLR 57.7 38.7 49% 29.92 0.0
04 10:15 W 23 G 32 10.00 A Few Clouds and Breezy FEW370 57.6 38.3 49% 29.91 0.0
04 09:55 W 22 G 29 10.00 Fair and Breezy CLR 57.7 37.9 48% 29.9 0.0
04 09:35 W 20 10.00 Fair CLR 56.5 38.5 51% 29.9 0.0
04 09:15 W 22 G 29 10.00 A Few Clouds and Breezy FEW310 55 38.3 53% 29.9 0.0
04 08:55 W 21 10.00 Fair and Breezy CLR 53.8 37.9 55% 29.9 0.0
04 08:35 W 18 G 24 10.00 Fair CLR 53.4 37.8 56% 29.9 0.0
04 08:15 W 20 G 28 10.00 Fair CLR 53.1 37.9 57% 29.9 0.0
04 07:55 W 21 G 25 10.00 Fair and Breezy CLR 51.6 37.9 60% 29.9 0.0
04 07:35 W 21 10.00 Fair and Breezy CLR 50.9 37.9 61% 29.89 0.0
04 07:15 W 16 10.00 Fair CLR 50 37.6 63% 45 29.9 0.0
04 06:55 W 18 10.00 Fair CLR 49.6 37.8 64% 44 29.89 0.0
04 06:35 W 16 10.00 Fair CLR 49.6 37.9 64% 44 29.89 0.0
04 06:15 W 18 10.00 Fair CLR 49.3 38.1 66% 43 29.88 0.0
04 05:55 W 15 10.00 Fair CLR 49.8 38.5 65% 45 29.88 0.0
04 05:35 W 13 10.00 Fair CLR 49.8 38.7 66% 45 29.87 0.0
04 05:15 W 17 G 23 10.00 Fair CLR 50.7 38.1 62% 29.87 0.0
04 04:55 W 17 G 24 10.00 Fair CLR 50.7 37.8 55.6 50.7 61% 29.87 0.0
04 04:35 W 13 10.00 Fair CLR 50.9 37.9 61% 29.87 0.0
04 04:15 W 13 10.00 Fair CLR 51.1 38.1 61% 29.87 0.0
04 03:55 W 20 10.00 Fair CLR 51.4 38.3 61% 29.87 0.0
04 03:35 W 20 G 26 10.00 Fair CLR 51.6 38.1 60% 29.87 0.0
04 03:15 W 23 G 31 10.00 Fair and Breezy CLR 52 38.5 60% 29.87 0.0
04 02:55 W 21 10.00 Fair and Breezy CLR 52.2 38.7 60% 29.88 0.0
04 02:35 W 17 G 23 10.00 Fair CLR 51.8 38.8 61% 29.88 0.0
04 02:15 W 16 G 30 10.00 Fair CLR 52.3 38.7 60% 29.88 0.0
04 01:55 W 24 10.00 Fair and Breezy CLR 52.9 38.5 58% 29.89 0.0
04 01:35 W 21 G 32 10.00 Fair and Breezy CLR 52.9 38.1 57% 29.88 0.0
04 01:15 W 25 G 33 10.00 Fair and Breezy CLR 53.1 38.3 57% 29.88 0.0
04 00:55 W 13 G 26 10.00 Fair CLR 54 37.2 53% 29.89 0.0
04 00:35 W 16 G 24 10.00 Fair CLR 54.3 37.6 53% 29.88 0.0
04 00:15 W 12 G 20 10.00 Fair CLR 54 39.6 58% 29.89 0.0
03 23:55 SW 15 10.00 Fair CLR 54.5 40.1 58% 29.88 0.0
03 23:35 SW 14 G 23 10.00 Fair CLR 55 40.1 57% 29.89 0.0
03 23:15 W 14 G 22 10.00 Fair CLR 55.2 40.1 57% 29.89 0.0
03 22:55 SW 18 G 22 10.00 Fair CLR 55.6 40.1 69.8 55.6 56% 29.89 0.0
03 22:35 SW 20 G 24 10.00 Fair CLR 55.9 40.3 56% 29.89 0.0
03 22:15 SW 18 G 28 10.00 Fair CLR 56.8 40.5 54% 29.89 0.0
03 21:55 SW 17 G 24 10.00 Fair CLR 55.9 42.3 60% 29.86 0.0
03 21:35 SW 15 10.00 Fair CLR 55.8 42.6 62% 29.87 0.0
03 21:15 SW 18 G 24 10.00 Fair CLR 56.1 42.8 61% 29.85 0.0
03 20:55 SW 16 G 23 10.00 Fair CLR 56.1 42.4 60% 29.85 0.0
03 20:35 SW 18 G 23 10.00 Fair CLR 56.1 42.3 60% 29.85 0.0
03 20:15 SW 16 10.00 Fair CLR 56.7 41.9 58% 29.84 0.0
03 19:55 SW 21 G 26 9.00 Fair and Breezy CLR 57.2 41.5 56% 29.83 0.0
03 19:35 SW 21 G 30 9.00 Fair and Breezy CLR 57.7 42.1 56% 29.83 0.0
03 19:15 SW 21 G 26 9.00 Fair and Breezy CLR 59.7 41.7 52% 29.82 0.0
03 18:55 SW 21 G 28 9.00 Fair and Breezy CLR 61.7 41.9 48% 29.81 0.0
03 18:35 SW 20 G 29 9.00 Fair CLR 62.2 41.2 46% 29.81 0.0
03 18:15 SW 18 G 25 10.00 Fair CLR 64.8 41.2 42% 29.81 0.0
03 17:55 SW 21 G 26 10.00 Fair and Breezy CLR 66.9 40.5 38% 29.81 0.0
03 17:35 SW 23 G 28 10.00 Fair and Breezy CLR 67.8 40.5 37% 29.81 0.0
03 17:15 SW 24 G 31 10.00 Fair and Breezy CLR 69.6 40.8 35% 29.81 0.0
03 16:55 SW 23 G 29 10.00 Fair and Breezy CLR 69.1 41.5 75.6 69.1 37% 29.81 0.0
03 16:35 SW 22 G 29 10.00 Fair and Breezy CLR 70.7 41.5 35% 29.81 0.0
03 16:15 S 21 G 26 10.00 Fair and Breezy CLR 70.5 41.4 35% 29.82 0.0
03 15:55 SW 22 G 28 10.00 Fair and Breezy CLR 72.7 39.2 30% 29.82 0.0
03 15:35 SW 17 G 26 10.00 Fair CLR 72.7 38.5 29% 29.83 0.0
03 15:15 SW 18 G 28 10.00 Fair CLR 73.2 35.6 25% 29.84 0.0
03 14:55 SW 23 G 30 10.00 Fair and Breezy CLR 73.9 34.3 24% 29.84 0.0
03 14:35 SW 22 G 28 10.00 Fair and Breezy CLR 74.7 34.9 23% 29.84 0.0
03 14:15 SW 17 G 28 10.00 Fair CLR 74.5 33.6 22% 29.85 0.0
03 13:55 SW 20 G 26 10.00 Fair CLR 75.2 34 22% 76 29.86 0.0
03 13:35 SW 18 G 24 10.00 Fair CLR 75.4 34.5 23% 76 29.86 0.0
03 12:55 SW 20 G 25 10.00 A Few Clouds FEW350 74.3 37.2 26% 29.87 0.0
03 12:35 SW 20 G 24 10.00 Fair CLR 74.3 36.5 25% 29.88 0.0
03 11:55 SW 17 G 25 10.00 Fair CLR 72.5 39 30% 29.89 0.0
03 11:35 SW 20 G 28 10.00 Fair CLR 72.1 37.4 28% 29.89 0.0
03 11:15 SW 17 10.00 Fair CLR 72.5 35.6 26% 29.89 0.0
03 10:55 SW 20 10.00 Fair CLR 71.8 32.4 72.1 47.5 23% 29.9 0.0
03 10:35 SW 20 G 24 10.00 Fair CLR 71.1 33.4 25% 29.9 0.0
03 10:15 SW 18 G 24 10.00 A Few Clouds FEW340 70.3 31.8 24% 29.89 0.0
03 09:55 SW 14 10.00 Fair CLR 70.2 32.7 25% 29.89 0.0
03 09:35 SW 13 9.00 Fair CLR 70 33.3 26% 29.89 0.0
03 09:15 SW 10 G 18 10.00 Fair CLR 68.9 30.6 24% 29.89 0.0
03 08:55 SW 10 10.00 Fair CLR 68.4 29.8 24% 29.89 0.0
03 08:35 SW 13 10.00 Fair CLR 68 29.8 24% 29.89 0.0
03 08:15 SW 9 10.00 Fair CLR 67.3 32 27% 29.89 0.0
03 07:55 Calm 10.00 Fair CLR 65.8 30.7 27% 29.88 0.0
03 07:35 Calm 10.00 Fair CLR 63.7 30.2 28% 29.88 0.0
03 07:15 Calm 10.00 Fair CLR 58.8 31.1 35% 29.88 0.0
03 06:55 Calm 10.00 Fair CLR 55.2 29.1 37% 29.87 0.0
03 06:35 NW 5 9.00 Fair CLR 51.3 28.9 42% 29.87 0.0
03 06:15 W 3 9.00 Fair CLR 48.9 28.8 46% 29.87 0.0
03 05:55 NW 5 9.00 Fair CLR 48.4 27.7 45% 47 29.87 0.0
03 05:35 NW 5 10.00 Fair CLR 48.7 27.7 44% 47 29.87 0.0
03 05:15 NW 7 10.00 Fair CLR 50.4 27.1 41% 29.87 0.0
03 04:55 NW 7 10.00 Fair CLR 50.5 27.1 64.9 50.4 40% 29.88 0.0
03 04:35 N 7 10.00 Fair CLR 51.4 27.3 39% 29.88 0.0
03 04:15 N 6 10.00 Fair CLR 54.1 27.3 36% 29.88 0.0
03 03:55 NE 5 10.00 Fair CLR 55.6 27.7 34% 29.88 0.0
03 03:35 E 3 10.00 Fair CLR 56.5 27.7 33% 29.88 0.0
03 03:15 W 6 10.00 Fair CLR 57.7 27 31% 29.88 0.0
03 02:55 W 3 10.00 Fair CLR 57.2 27.5 32% 29.88 0.0
03 02:35 Calm 10.00 Fair CLR 58.5 26.8 30% 29.88 0.0
03 02:15 W 5 10.00 A Few Clouds FEW110 58.5 26.6 30% 29.88 0.0
03 01:55 W 6 10.00 A Few Clouds FEW110 63.1 25.9 24% 29.89 0.0
03 01:35 SW 5 10.00 Fair CLR 61 26.6 27% 29.89 0.0
03 01:15 W 9 10.00 Fair CLR 60.4 26.6 28% 29.9 0.0
03 00:55 W 5 10.00 Fair CLR 60.1 27 28% 29.9 0.0
03 00:35 W 6 10.00 Fair CLR 60.3 26.1 27% 29.9 0.0
03 00:15 W 10 10.00 Fair CLR 60.6 26.6 27% 29.9 0.0
02 23:55 W 9 10.00 Fair CLR 62.1 26.6 26% 29.9 0.0
02 23:35 W 9 10.00 Fair CLR 61 27 27% 29.9 0.0
02 23:15 SW 6 10.00 Fair CLR 63.3 26.6 25% 29.9 0.0
02 22:55 S 5 10.00 Fair CLR 65.8 25.9 83.7 65.5 22% 29.9 0.0
02 22:35 SW 5 10.00 Fair CLR 65.7 26.4 23% 29.9 0.0
02 22:15 SW 3 10.00 Fair CLR 66.7 25.9 21% 29.9 0.0
02 21:55 S 3 10.00 Fair CLR 68 25.7 20% 29.9 0.0
02 21:35 Calm 10.00 Fair CLR 68.2 25.5 20% 29.9 0.0
02 21:15 W 5 10.00 Fair CLR 67.1 27 22% 29.89 0.0
02 20:55 W 7 10.00 Fair CLR 68.9 26.2 20% 29.88 0.0
02 20:35 SW 8 10.00 Fair CLR 70.3 26.2 19% 29.88 0.0
02 20:15 W 6 10.00 Fair CLR 70.2 27.7 20% 29.87 0.0
02 19:55 SW 10 10.00 Fair CLR 73.9 26.6 17% 29.86 0.0
02 19:35 SW 12 9.00 Fair CLR 75.2 28.4 18% 76 29.86 0.0
02 19:15 SW 12 9.00 Fair CLR 77 31.3 19% 77 29.86 0.0
02 18:55 SW 14 9.00 Fair CLR 78.6 31.5 18% 78 29.86 0.0
02 18:35 SW 13 9.00 Fair CLR 79.9 31.8 17% 78 29.86 0.0
02 18:15 SW 18 G 24 10.00 Fair CLR 80.6 31.5 17% 79 29.86 0.0
02 17:55 SW 15 G 22 10.00 Fair CLR 82 32.4 17% 80 29.87 0.0
02 17:35 SW 16 G 22 10.00 Fair CLR 82.6 33.4 17% 80 29.87 0.0
02 17:15 SW 17 G 23 10.00 Fair CLR 82.8 32 16% 80 29.87 0.0
02 16:55 S 18 10.00 Fair CLR 83.7 33.1 86.9 78.1 16% 81 29.86 0.0
02 16:35 S 20 10.00 Fair CLR 84.9 32.7 15% 82 29.86 0.0
02 15:55 Vrbl 3 10.00 A Few Clouds FEW290 83.8 29.8 14% 81 29.87 0.0
02 15:35 SE 14 G 22 10.00 Mostly Cloudy BKN290 85.1 29.5 13% 82 29.88 0.0
02 15:15 S 16 G 22 10.00 Mostly Cloudy BKN290 85.5 29.1 13% 82 29.89 0.0
02 14:55 S 14 G 21 10.00 Fair CLR 86 28.4 12% 83 29.91 0.0
02 14:35 Vrbl 7 10.00 A Few Clouds FEW310 85.6 29.1 13% 82 29.91 0.0
02 14:15 S 12 G 22 10.00 Partly Cloudy SCT310 85.5 28.2 12% 82 29.92 0.0
02 13:55 SE 8 10.00 Mostly Cloudy FEW240 SCT290 BKN310 BKN380 84.4 26.6 12% 81 29.93 0.0
02 13:35 Calm 10.00 Mostly Cloudy FEW260 SCT280 BKN310 83.3 27.3 13% 81 29.93 0.0
02 13:15 Vrbl 6 10.00 Mostly Cloudy BKN280 84 27.9 13% 81 29.94 0.0
02 12:55 SW 8 10.00 Mostly Cloudy FEW250 SCT280 BKN310 82.4 26.6 13% 80 29.96 0.0
02 12:15 Calm 10.00 Mostly Cloudy BKN280 BKN310 79.7 27 14% 78 29.97 0.0
02 11:55 SE 12 G 17 10.00 A Few Clouds FEW270 80.6 28.8 15% 79 29.99 0.0
02 11:35 E 8 10.00 Fair CLR 80.1 28.2 15% 78 29.99 0.0
02 11:15 SE 10 9.00 Fair CLR 79.3 28.6 16% 78 29.99 0.0
02 10:55 E 9 10.00 Partly Cloudy FEW270 SCT340 77.9 29.3 78.6 54.1 17% 77 30 0.0
02 10:35 E 9 10.00 Partly Cloudy SCT270 77.2 32.2 19% 77 30 0.0
Date Time (pdt) Wind (mph) Vis. (mi.) Weather Sky Cond. Air Dwpt Max. Min. Relative Humidity Wind Chill (°F) Heat Index (°F) altimeter (in) sea level (mb) 1 hr 3 hr 6 hr
6 hour
Temperature (ºF) Pressure Precipitation (in)